Grand Rapids, MI

12:13 AM EST on January 24, 2017 (GMT -0500)
Gerald R. Ford International

Weather History for KGRR - January, 2014

Change the Weather History Date:

Friday, January 10, 2014

  Actual Average Record
Temperature  
Mean Temperature 33 °F 24 °F  
Max Temperature 42 °F 31 °F 57 °F (1975)
Min Temperature 23 °F 18 °F -19 °F (1942)
Degree Days  
Heating Degree Days 32 41  
Month to date heating degree days 506 401  
Since 1 July heating degree days 3026 2850  
Cooling Degree Days 0 0  
Month to date cooling degree days 0 0  
Year to date cooling degree days 0 0  
Moisture  
Dew Point 29 °F    
Average Humidity 87    
Maximum Humidity 92    
Minimum Humidity 81    
Precipitation  
Precipitation 0.66 in 0.08 in 1.69 in (1975)
Month to date precipitation 1.86 0.77  
Year to date precipitation 1.86 0.77  
Snow  
Snow T in 0.70 in 5.20 in (1999)
Month to date snowfall 16.1 7.2  
Since 1 July snowfall 53.0 36.4  
Snow Depth 12.00 in    
Sea Level Pressure  
Sea Level Pressure 29.98 in    
Wind  
Wind Speed 10 mph (SSE)    
Max Wind Speed 22 mph    
Max Gust Speed 26 mph    
Visibility 3 miles    
Events Rain    
T = Trace of Precipitation, MM = Missing Value Source: NWS Daily Summary

Daily Weather History Graph

Daily Weather History Graph

Search for Another Location

Airport or City:

Trip Planner

Search our weather history database for the weather conditions in past years. The results will help you decide how hot, cold, wet, or windy it might be!

Date:

Astronomy

Jan. 10, 2014 Rise Set
Actual Time 8:12 AM EST 5:27 PM EST
Civil Twilight 7:40 AM EST 5:59 PM EST
Nautical Twilight 7:05 AM EST 6:34 PM EST
Astronomical Twilight 6:31 AM EST 7:08 PM EST
Moon 1:33 PM EST (1/10) 3:16 AM EST (1/10)
Length of Visible Light 10h 18m
Length of Day
9h 15m
Waxing Gibbous, 75% of the Moon is Illuminated
Jan 10
Waxing Gibbous
Jan 15
Full
Jan 24
Last Quarter
Jan 30
New
Feb 6
First Quarter

Hourly Weather History & Observations

Time (EST) Temp. Windchill Dew Point Humidity Pressure Visibility Wind Dir Wind Speed Gust Speed Precip Events Conditions
12:49 AM 24.8 °F 19.1 °F 19.4 °F 80% 30.19 in 5.0 mi SSE 4.6 mph - 0.00 in   Haze
12:53 AM 24.1 °F 17.0 °F 19.0 °F 81% 30.24 in 5.0 mi SSE 5.8 mph - 0.00 in   Haze
1:16 AM 24.8 °F 17.9 °F 19.4 °F 80% 30.18 in 4.0 mi SSE 5.8 mph - N/A   Overcast
1:46 AM 24.8 °F 16.9 °F 21.2 °F 86% 30.17 in 4.0 mi SSE 6.9 mph - 0.00 in   Overcast
1:53 AM 25.0 °F 17.1 °F 21.0 °F 85% 30.21 in 4.0 mi SSE 6.9 mph - 0.00 in   Overcast
2:53 AM 25.0 °F 19.3 °F 21.9 °F 88% 30.21 in 4.0 mi SSE 4.6 mph - N/A   Overcast
3:20 AM 24.8 °F 19.1 °F 21.2 °F 86% 30.16 in 4.0 mi SSE 4.6 mph - N/A   Overcast
3:53 AM 26.1 °F 20.5 °F 21.9 °F 84% 30.19 in 4.0 mi SSE 4.6 mph - N/A   Overcast
4:07 AM 26.6 °F 21.2 °F 21.2 °F 80% 30.14 in 4.0 mi SSE 4.6 mph - N/A   Overcast
4:53 AM 26.1 °F 20.5 °F 23.0 °F 88% 30.17 in 4.0 mi SE 4.6 mph - N/A   Overcast
5:53 AM 28.0 °F 20.0 °F 25.0 °F 88% 30.16 in 3.0 mi South 8.1 mph - N/A   Overcast
6:17 AM 28.4 °F 20.4 °F 24.8 °F 86% 30.11 in 2.5 mi South 8.1 mph - N/A   Overcast
6:53 AM 28.9 °F 21.1 °F 26.1 °F 89% 30.15 in 2.0 mi South 8.1 mph - N/A   Overcast
7:07 AM 28.4 °F 20.4 °F 26.6 °F 93% 30.11 in 1.8 mi South 8.1 mph - N/A   Overcast
7:53 AM 28.9 °F 21.1 °F 26.1 °F 89% 30.15 in 1.5 mi South 8.1 mph - N/A   Overcast
8:28 AM 28.4 °F 21.2 °F 26.6 °F 93% 30.11 in 0.8 mi South 6.9 mph - N/A   Overcast
8:53 AM 30.0 °F 23.2 °F 27.0 °F 88% 30.14 in 0.8 mi South 6.9 mph - N/A   Overcast
9:53 AM 30.9 °F 23.5 °F 28.0 °F 89% 30.14 in 0.8 mi South 8.1 mph - N/A   Overcast
10:25 AM 32.0 °F 24.2 °F 28.4 °F 87% 30.10 in 1.0 mi South 9.2 mph - N/A   Overcast
10:53 AM 32.0 °F 24.8 °F 28.9 °F 88% 30.12 in 1.0 mi SSE 8.1 mph - N/A   Overcast
11:27 AM 33.8 °F 26.4 °F 28.4 °F 81% 30.06 in 2.0 mi South 9.2 mph - N/A   Overcast
11:53 AM 33.1 °F 24.9 °F 30.0 °F 89% 30.07 in 2.0 mi SSE 10.4 mph - N/A   Overcast
12:45 PM 33.8 °F 25.3 °F 30.2 °F 87% 30.00 in 3.0 mi South 11.5 mph - N/A   Overcast
12:53 PM 34.0 °F 25.0 °F 30.0 °F 85% 30.03 in 3.0 mi South 12.7 mph - N/A   Overcast
1:53 PM 35.1 °F 26.9 °F 30.9 °F 85% 29.97 in 4.0 mi SSE 11.5 mph - N/A   Overcast
2:53 PM 36.0 °F 28.0 °F 32.0 °F 86% 29.93 in 7.0 mi SSE 11.5 mph - N/A   Overcast
3:53 PM 36.0 °F 30.3 °F 32.0 °F 86% 29.90 in 5.0 mi SSE 6.9 mph - N/A   Overcast
4:22 PM 35.6 °F 29.2 °F 33.8 °F 93% 29.87 in 2.5 mi SSE 8.1 mph - N/A   Overcast
4:43 PM 35.6 °F 29.2 °F 33.8 °F 93% 29.85 in 1.2 mi SE 8.1 mph - 0.01 in Rain Light Rain
4:53 PM 36.0 °F 29.6 °F 34.0 °F 93% 29.87 in 1.0 mi ESE 8.1 mph - 0.01 in Rain Light Rain
5:03 PM 35.6 °F 28.6 °F 33.8 °F 93% 29.83 in 1.0 mi ESE 9.2 mph - 0.00 in Rain Light Rain
5:53 PM 37.0 °F 28.9 °F 35.1 °F 93% 29.83 in 1.0 mi SE 12.7 mph - 0.08 in Rain Light Rain
6:35 PM 37.4 °F 28.5 °F 35.6 °F 93% 29.77 in 3.0 mi SE 15.0 mph - 0.06 in Rain Light Rain
6:53 PM 39.0 °F 29.9 °F 36.0 °F 89% 29.79 in 3.0 mi SSE 17.3 mph - 0.09 in Rain Rain
7:24 PM 39.2 °F 30.8 °F 37.4 °F 93% 29.76 in 3.0 mi SSE 15.0 mph - 0.10 in Rain Rain
7:53 PM 39.9 °F 31.4 °F 37.0 °F 89% 29.77 in 3.0 mi SSE 16.1 mph - 0.19 in Rain Rain
8:11 PM 39.2 °F 30.5 °F 37.4 °F 93% 29.73 in 3.0 mi SSE 16.1 mph - 0.04 in Rain Rain
8:53 PM 41.0 °F 32.2 °F 37.9 °F 89% 29.72 in 7.0 mi SSE 18.4 mph - 0.11 in Rain Light Rain
9:15 PM 41.0 °F 32.5 °F 37.4 °F 87% 29.67 in 5.0 mi SSE 17.3 mph - 0.03 in Rain Light Rain
9:53 PM 41.0 °F 31.9 °F 37.9 °F 89% 29.66 in 4.0 mi SSE 19.6 mph - 0.08 in Rain Rain
10:53 PM 41.0 °F 32.2 °F 37.9 °F 89% 29.60 in 9.0 mi SSE 18.4 mph - 0.08 in Rain Light Rain
11:37 PM 41.0 °F 32.8 °F 37.4 °F 87% 29.55 in 9.0 mi South 16.1 mph 24.2 mph 0.03 in Rain Light Rain
11:53 PM 42.1 °F 34.9 °F 39.0 °F 89% 29.59 in 9.0 mi South 13.8 mph 19.6 mph 0.05 in Rain Light Rain